Showing default

KORSAT 7, 58463

Orbit data source: Space-Track

KORSAT 7, 58463 is a payload satellite owned by DAPA (KR) in SSO that was launched on Fri, 01 Dec 2023 UTC via an FALCON 9 launch vehicle from the Air Force Western Test Range (AFWTR). Payload-class satellites include a variety of spacecraft equipped with specific instruments for various scientific and technological missions. These include communications satellites like Starlink; space stations such as the ISS; scientific satellites like the Hubble; Earth observation satellites from companies like Planet Labs, Umbra, and HawkEye 360; GPS; miniature CubeSats for education and research; and military/defense satellites.

Loading next visibility...
Identifier
58463, 2023-185B
Orbit
SSO
Country
Flag of KRKR / SKOR
Related business
Manufacturer
KAI
Mission
Operational Defense Imaging
Bus & Motor
CAS500?, Unknown motor
Mass
~800 kg wet, ~750 kg dry
Launch date (UTC)
2023-12-01 (3 years ago)
Launch vehicle
FALCON 9
Launch site
Air Force Western Test Range (AFWTR)
Object type
Payload
Rocket body
Debris
Shape & HBR
Hex Box + 3 Pan, 3.0 m
Radar Cross Section
10.467 m², Large (>1 m²)

Expand to show TLE details & history
Last TLE update: 11 hours ago

TLE from 11 hours ago
0 KORSAT 7
1 58463U 23185B   26263.58288634  .00001043  00000-0  86335-4 0  9995
2 58463  97.6369 326.2611 0027874   4.4326 355.7139 15.00775372153599
Epoch: 2026-09-20T13:59Z
TLE epoch observation values (Epoch: 2026-09-20T13:59:21.379Z)
Latitude
-0.0001°
Longitude
116.94704°
Altitude
548.26 km
Speed
7.598 km/s
True Right ascension
21h 45m 02s
True Declination
0° 00' 00"
Sunlit
Object was in full shadow at epoch
Visualization orbit readout
Latitude
Unknown
Longitude
Unknown
Altitude
Unknown
Speed
Unknown
Apparent Right ascension
Unknown
Apparent Declination
Unknown
Sunlit
N/A
Visualization observer readout
Local Sidereal Time
18:01:24
Azimuth
Unknown
Elevation
Unknown
Doppler factor
Unknown
Orbital elements
Apogee altitude
580.849 km
Perigee altitude
542.162 km
Semi-major axis
6,939.642 km
Eccentricity
0.00279
Inclination
97.6369°
RAAN
326.2611°
Arg. of periapsis
4.4326°
True anomaly
355.68994°
Mean anomaly
355.7139°
Eccentric anomaly
355.70193°
Mean motion
3.75437 °/min
Orbital period
95.89 mins
BSTAR
0.000086335
Loading maneuver chart data...
Computing Atmospheric mass density...
Loading historical data...
Loading historical data...
Loading historical data...
Loading historical data...
Loading historical data...
Loading historical data...
Loading historical data...

Documentation

Showing up to 5 results
|